Regional Weather Roundup
Issued by NWS

Home | Current Version | Previous Version | Graphics & Text | Print | Product List | Glossary On
Versions: 1 2 3 4 5 6 7 8 9 10 11 12 13 14 15 16 17 18 19 20 21 22 23 24 25 26 27 28 29 30 31 32 33 34 35 36 37 38 39 40 41 42 43 44 45 46 47 48 49 50
000
ASUS43 KMPX 101401
RWRMN
WEATHER ROUNDUP FOR MINNESOTA
NATIONAL WEATHER SERVICE TWIN CITIES/CHANHASSEN MN
800 AM CST SUN DEC 10 2017


NOTE: "FAIR" INDICATES FEW OR NO CLOUDS BELOW 12,000 FEET WITH NO
SIGNIFICANT WEATHER AND/OR OBSTRUCTIONS TO VISIBILITY. N/A MEANS
CURRENT SKY AND/OR WEATHER CONDITIONS ARE NOT AVAILABLE.

MNZ060>063-068>070-101500-
   Twin Cities Metro

CITY           SKY/WX    TMP DP  RH WIND       PRES   REMARKS
TWIN CITIES    CLOUDY    26  22  84 NW10      29.93R WCI  16
ST PAUL        CLOUDY    24  20  84 NW7       29.94R WCI  16
CRYSTAL        CLOUDY    25  19  78 NW9       29.93R WCI  15
BLAINE         CLOUDY    25  21  86 W6        29.92R WCI  18
LAKEVILLE      CLOUDY    25  21  86 NW8       29.91R WCI  16
EDEN PRAIRIE   CLOUDY    27  22  81 NW8       29.92R WCI  19
SOUTH ST PAUL  CLOUDY    26  20  80 NW7       29.93R WCI  18
LAKE ELMO      CLOUDY    23  21  93 NW6       29.91R WCI  16
$$
MNZ001>005-007-008-013>017-022>024-027-028-101500-
   Northwest Minnesota

CITY           SKY/WX    TMP DP  RH WIND       PRES   REMARKS
BEMIDJI        CLOUDY    20  17  86 N7        29.94R WCI  11
HALLOCK        CLOUDY    21  18  86 N6        30.01S WCI  14
ROSEAU         CLOUDY    19  16  86 NW8       29.99R WCI   9
WARROAD        CLOUDY    18  12  79 NW5       29.99R WCI  11
CROOKSTON      CLOUDY    19  18  93 N8        30.03R WCI   9
FOSSTON        CLOUDY    18  16  93 NW9       29.99R WCI   6
DETROIT LAKES  CLOUDY    21  21 100 NW9       29.99R WCI  11
MOORHEAD       CLOUDY    18  14  86 CALM      30.03R
PARK RAPIDS    CLOUDY    22  18  85 N7        29.94R WCI  13
MAHNOMEN       CLOUDY    21  18  91 NW8       29.98R WCI  11
$$
MNZ006-009>011-018-025>026-101500-
   North Central Minnesota

CITY           SKY/WX    TMP DP  RH WIND       PRES   REMARKS
BAUDETTE       CLOUDY    16  12  84 N6        29.96R WCI   7
FLAG ISLAND    CLOUDY    16  10  79 N7        29.98R WCI   6
INTL FALLS     CLOUDY    15   8  73 N9        29.95R WCI   3
WASKISH        CLOUDY    18  16  93 N3        29.95R
BIG FORK       CLOUDY    18  14  86 NW5       29.93R WCI  11
GRAND RAPIDS   CLOUDY    19  15  84 N12       29.93R WCI   7
ORR            LGT SNOW  14   9  79 CALM      29.89R
COOK           LGT SNOW  16  12  86 NW3       29.90R
WALKER         CLOUDY    20  16  84 N8        29.94R WCI  11
$$
MNZ012-019>021-037-101500-
   Northeast Minnesota

CITY           SKY/WX    TMP DP  RH WIND       PRES   REMARKS
DULUTH         CLOUDY    18  14  84 N12       29.86R WCI   5
ELY            LGT SNOW  12   9  85 N5        29.88R WCI   4
HIBBING        CLOUDY    16  12  84 N9        29.89R WCI   4
EVELETH        FLURRIES  17  11  77 N7G16     29.89R WCI   8
DULUTH HARBOR  CLOUDY    25  18  74 N9G16     29.92R WCI  15
TWO HARBORS    FLURRIES  19  14  79 NW7       29.86R WCI  10
G MARAIS ARPRT LGT SNOW   9   3  78 CALM      29.81R
$$
MNZ029>031-032-039>041-046>048-054>057-064-101500-
   West Central Minnesota

CITY           SKY/WX    TMP DP  RH WIND       PRES   REMARKS
FERGUS FALLS   CLOUDY    19  18  93 N13       30.03S WCI   7
MORRIS         CLEAR     25  19  80 NW12      29.98R WCI  14
ALEXANDRIA     CLOUDY    24  20  84 NW8       29.95R WCI  15
ELBOW LAKE     FAIR      21  19  91 NW9       29.98F WCI  10
WADENA         CLOUDY    21  19  93 NW9       29.94S WCI  11
GLENWOOD       CLOUDY    25  21  86 N10       29.96R WCI  15
BENSON         CLEAR     23  19  86 N9        30.01R WCI  13
ORTONVILLE     CLEAR     28  21  74 NW8       30.01R WCI  20
MADISON        MOCLDY    34  27  75 NW12      30.00S WCI  25
WILLMAR        FAIR      25  21  86 NW10      29.98R WCI  15
$$
MNZ033>034-036-042>043-049>051-058-059-101500-
   Central Minnesota

CITY           SKY/WX    TMP DP  RH WIND       PRES   REMARKS
ST CLOUD       CLOUDY    25  21  85 NW10      29.93R WCI  15
SAUK CENTRE    CLOUDY    24  20  84 NW10      29.96R WCI  14
PAYNESVILLE    CLOUDY    26  23  88 NW8       29.97R WCI  17
AITKIN         CLOUDY    21  16  79 NW8       29.91R WCI  12
PINE RIVER     CLOUDY    21  18  86 N5        29.97R WCI  15
BRAINERD       CLOUDY    25  19  78 NW9       29.92R WCI  15
STAPLES        CLOUDY    23  19  86 NW9       29.94R WCI  13
LONG PRAIRIE   CLOUDY    25  21  86 W13       29.95R WCI  13
LITTLE FALLS   CLOUDY    27  18  69 NW8       29.95R WCI  18
LITCHFIELD     CLOUDY    27  23  86 NW8       29.96R WCI  18
BUFFALO        CLOUDY    26  21  80 NW6       29.94R WCI  20
MAPLE LAKE     CLOUDY    27  23  85 NW7       29.94R WCI  20
HUTCHINSON     CLOUDY    26  22  85 W8        29.96R WCI  17
$$
MNZ037-044-045-052-053-101500-
   East Central Minnesota

CITY           SKY/WX    TMP DP  RH WIND       PRES   REMARKS
PRINCETON      CLOUDY    25  21  86 W6        29.92R WCI  18
MORA           CLOUDY    27  21  80 NW7       29.92R WCI  19
CAMBRIDGE      CLOUDY    27  19  74 NW3       29.92R
RUSH CITY      CLOUDY    24  20  82 NW5       29.91R WCI  19
MOOSE LAKE     CLOUDY    23  18  80 N12       29.88R WCI  12
HINCKLEY       CLOUDY    27  21  80 N7        29.90R WCI  19
CLOQUET        CLOUDY    19  14  79 NW12G17   29.88R WCI   7
MCGREGOR       CLOUDY    23  18  80 N9        29.91R WCI  13
$$
MNZ071>073-080-081-089-090-097-098-101500-
   Southwest Minnesota

CITY           SKY/WX    TMP DP  RH WIND       PRES   REMARKS
MONTEVIDEO     PTCLDY    27  21  80 N10G16    30.00R WCI  17
GRANITE FALLS  PTCLDY    30  24  76 NW12      30.01R WCI  21
CANBY          CLOUDY    32  27  80 W9        30.02R WCI  24
MARSHALL       CLOUDY    32  25  75 NW16      30.00R WCI  21
REDWOOD FALLS  CLEAR     29  20  69 NW13G18   29.97R WCI  19
OLIVIA         CLEAR     28  23  80 NW14      29.97R WCI  17
PIPESTONE      CLOUDY    28  25  86 NW12G17   29.99R WCI  18
WINDOM           N/A     30  18  59 NW16      29.97R WCI  19
WORTHINGTON    CLOUDY    31  25  78 NW13      29.99R WCI  21
JACKSON        CLOUDY    32  25  74 MISG      29.96R
TRACY          CLOUDY    32  26  80 NW10      29.99R WCI  23
$$
MNZ065>067-074>077-082>085-091>093-101500-
   South Central Minnesota

CITY           SKY/WX    TMP DP  RH WIND       PRES   REMARKS
MANKATO        PTCLDY    26  22  84 NW12      29.95R WCI  16
NEW ULM        CLOUDY    27  21  80 NW15      29.96R WCI  15
ST JAMES       CLEAR     28  23  80 NW14      29.97R WCI  17
FAIRMONT       CLOUDY    30  24  78 NW17      29.95R WCI  18
GLENCOE        MOCLDY    27  23  84 NW9       29.94R WCI  18
FARIBAULT      MOCLDY    27  21  80 NW8       29.91R WCI  18
WASECA         CLOUDY    27  21  80 NW9       29.93R WCI  17
ALBERT LEA     PTCLDY    27  21  80 NW9G16    29.89R WCI  17
$$
MNZ078>079-086>088-094>096-101500-
   Southeast Minnesota

CITY           SKY/WX    TMP DP  RH WIND       PRES   REMARKS
ROCHESTER      CLEAR     22  20  92 N13       29.87R WCI  10
RED WING       CLOUDY    21  18  86 NW5       29.90R WCI  15
STANTON        CLOUDY    26  22  85 NW8       29.89R WCI  17
DODGE CENTER   CLOUDY    21  19  93 NW9       29.88R WCI  11
WINONA         CLOUDY    25  21  86 NW6       29.90R WCI  18
AUSTIN         PTCLDY    25  21  86 NW8       29.88R WCI  16
PRESTON        CLEAR     22  19  88 NW7       29.87R WCI  13
$$
ABBREVIATIONS USED IN REMARKS
   TC - TEMPERATURES IN CELSIUS
  WCI - WIND CHILL INDEX
   HX - HEAT INDEX
  VSB - VISIBILITY
$$



USA.gov is the U.S. government's official web portal to all federal, state and local government web resources and services.